テンペル-スイフト-リニア彗星

11P/Tempel-Swift-LINEAR (2020)

English version
Home page
Updated on July 2, 2021

---------------------------------------------------------------------

・ プロフィール

・ 写真集

・ 軌道要素

Epoch 2020 May 31.0 TT = JDT 2459000.5
T 2020 Nov. 26.23783 TT                                 Spoto
q   1.3889087            (2000.0)            P               Q
n   0.16564468     Peri.  167.92205     +0.67833098     -0.70311508
a   3.2836062      Node   238.92271     +0.65170003     +0.70981623
e   0.5770173      Incl.   14.42091     +0.33934370     +0.04230955
P   5.95
From 171 observations 2001 Aug. 1-2020 Sept. 1, mean residual 0".8.

・ 星図

・ 光度変化

        m1 = 17.0 + 5 logΔ +  10.0 log r  [   ,-44]  (              〜2020年10月13日)
        m1 = -6.5 + 5 logΔ + 150   log r  [-44,  0]  (2020年10月13日〜2020年11月26日)
        m1 = 10.0 + 5 logΔ +  35   log r  [  0,   ]  (2020年11月26日〜              )

---------------------------------------------------------------------

軌道要素はM.P.E.C. 2020-S188に掲載されたものです。
星図はステラナビゲータ Ver.10 (アストロアーツ) で作成したものです。
光度グラフはComet for Windowsで作成したものです。

---------------------------------------------------------------------

Copyright(C) Seiichi Yoshida (comet@aerith.net). All rights reserved.